Clarksburg, WV

1:13 AM EDT on October 16, 2019 (GMT -0400)
Benedum

Weather History for KCKB - September, 2019

Change the Weather History Date:

Friday, September 20, 2019

  Actual Average Record
Temperature  
Mean Temperature 69 °F -  
Max Temperature 87 °F 75 °F 92 °F (1932)
Min Temperature 50 °F 54 °F 34 °F (1937)
Cooling Degree Days 4    
Month to date cooling degree days 166  
Year to date cooling degree days 1203  
Growing Degree Days 18 (Base 50)    
Moisture  
Dew Point 54 °F    
Average Humidity 63    
Maximum Humidity 89    
Minimum Humidity 37    
Precipitation  
Precipitation 0.00 in - - ()
Month to date precipitation 0.06  
Year to date precipitation 31.57  
Sea Level Pressure  
Sea Level Pressure 30.20 in    
Wind  
Wind Speed 2 mph (WSW)    
Max Wind Speed 12 mph    
Max Gust Speed 13 mph    
Visibility 10 miles    
Events      
Averages and records for this station are not official NWS values.
T = Trace of Precipitation, MM = Missing Value Source: NWS Daily Summary

Daily Weather History Graph

Daily Weather History Graph

Search for Another Location

Airport or City:

Astronomy

Sep. 20, 2019 Rise Set
Actual Time 7:06 AM EDT 7:21 PM EDT
Civil Twilight 6:39 AM EDT 7:48 PM EDT
Nautical Twilight 6:08 AM EDT 8:19 PM EDT
Astronomical Twilight 5:36 AM EDT 8:51 PM EDT
Moon 11:12 PM EDT (9/20) 1:07 PM EDT (9/20)
Length of Visible Light 13h 08m
Length of Day
12h 15m
Waning Gibbous, 65% of the Moon is Illuminated
Sep 20
Waning Gibbous
Sep 21
Last Quarter
Sep 28
New
Oct 5
First Quarter
Oct 13
Full

Hourly Weather History & Observations

Time (EDT) Temp. Heat Index Dew Point Humidity Pressure Visibility Wind Dir Wind Speed Gust Speed Precip Events Conditions
12:53 AM 57.9 °F - 48.9 °F 72% 30.18 in 10.0 mi Calm Calm - N/A   Clear
1:53 AM 57.9 °F - 48.9 °F 72% 30.20 in 10.0 mi Calm Calm - N/A   Clear
2:53 AM 54.0 °F - 48.9 °F 83% 30.20 in 10.0 mi Calm Calm - N/A   Clear
3:53 AM 53.1 °F - 48.0 °F 83% 30.21 in 10.0 mi Calm Calm - N/A   Clear
4:53 AM 53.1 °F - 48.0 °F 83% 30.22 in 10.0 mi Calm Calm - N/A   Clear
5:53 AM 52.0 °F - 48.0 °F 86% 30.22 in 10.0 mi Calm Calm - N/A   Clear
6:53 AM 51.1 °F - 46.9 °F 86% 30.23 in 10.0 mi Calm Calm - N/A   Clear
7:53 AM 53.1 °F - 48.9 °F 86% 30.25 in 10.0 mi Calm Calm - N/A   Clear
8:53 AM 60.1 °F - 51.1 °F 72% 30.25 in 10.0 mi Calm Calm - N/A   Mostly Cloudy
9:53 AM 66.9 °F - 50.0 °F 54% 30.25 in 10.0 mi Variable 3.5 mph - N/A   Clear
10:53 AM 73.0 °F - 52.0 °F 48% 30.24 in 10.0 mi Variable 3.5 mph - N/A   Clear
11:53 AM 77.0 °F - 53.1 °F 43% 30.23 in 10.0 mi West 6.9 mph - N/A   Clear
12:53 PM 81.0 °F 80.8 °F 55.9 °F 42% 30.21 in 10.0 mi Variable 4.6 mph - N/A   Clear
1:53 PM 82.9 °F 82.4 °F 57.0 °F 41% 30.18 in 10.0 mi SW 4.6 mph - N/A   Clear
2:53 PM 84.0 °F 83.5 °F 57.9 °F 41% 30.17 in 10.0 mi Variable 4.6 mph - N/A   Partly Cloudy
3:53 PM 84.9 °F 84.4 °F 59.0 °F 41% 30.14 in 10.0 mi Calm Calm - N/A   Clear
4:53 PM 86.0 °F 85.0 °F 57.9 °F 38% 30.15 in 10.0 mi West 5.8 mph - N/A   Partly Cloudy
5:53 PM 84.9 °F 84.4 °F 59.0 °F 41% 30.15 in 10.0 mi West 5.8 mph - N/A   Clear
6:53 PM 81.0 °F 81.3 °F 59.0 °F 47% 30.16 in 10.0 mi SW 4.6 mph - N/A   Clear
7:53 PM 77.0 °F - 59.0 °F 54% 30.16 in 10.0 mi Calm Calm - N/A   Clear
8:53 PM 73.0 °F - 60.1 °F 64% 30.18 in 10.0 mi Calm Calm - N/A   Clear
9:53 PM 69.1 °F - 61.0 °F 75% 30.19 in 10.0 mi Calm Calm - N/A   Clear
10:53 PM 66.9 °F - 61.0 °F 81% 30.19 in 10.0 mi Calm Calm - N/A   Clear
11:53 PM 66.9 °F - 61.0 °F 81% 30.19 in 10.0 mi Calm Calm - N/A   Clear